User: anonymous   Login
Location: Charlottesville
(38.0290°N, 78.4770°W)
Time: 07:04:49
(UTC-05:00)
Language:

Envisat - Orbit

View from above orbital plane
View from above orbital plane
View from above satellite
View from above satellite

Ground track
Ground track

The orbit data is extracted from the following two-line orbital elements,

1 27386U 02009A   19021.60296250 -.00000007 +00000-0 +11100-4 0  9995
2 27386 098.1631 050.0988 0001163 089.0673 020.5396 14.37939495884841
Epoch (UTC): 21 January 2019 14:28:15
Eccentricity: 0.0001163
inclination: 98.1631°
perigee height: 764 km
apogee height: 766 km
right ascension of ascending node: 50.0988°
argument of perigee: 89.0673°
revolutions per day: 14.37939495
mean anomaly at epoch: 20.5396°
orbit number at epoch: 88484

The dashed part of the orbit path shows where the satellite is in the earth's shadow,  

DLR